| time (UTC) | temp C | wind direction | speed KPH | gust KPH | rain 1hr cm | rain 24hr cm | rain mn cm | humidity % | barometer mb |
| 20260502194144 | 16 | 241 | 22.5 | 27.4 | 0.00 | 0.00 | 0.00 | 43 | 1010.6 |
| 20260502193641 | 16 | 231 | 20.9 | 25.7 | 0.00 | 0.00 | 0.00 | 42 | 1010.7 |
| 20260502193138 | 16 | 219 | 8.0 | 19.3 | 0.00 | 0.00 | 0.00 | 45 | 1010.7 |
| 20260502192633 | 16 | 240 | 14.5 | 24.1 | 0.00 | 0.00 | 0.00 | 46 | 1010.8 |
| 20260502192131 | 16 | 248 | 22.5 | 33.8 | 0.00 | 0.00 | 0.00 | 44 | 1010.8 |
| 20260502191627 | 17 | 244 | 25.7 | 33.8 | 0.00 | 0.00 | 0.00 | 44 | 1010.8 |
| 20260502191125 | 17 | 202 | 6.4 | 20.9 | 0.00 | 0.00 | 0.00 | 42 | 1010.9 |
| 20260502190622 | 17 | 233 | 14.5 | 19.3 | 0.00 | 0.00 | 0.00 | 42 | 1011.1 |
| 20260502190121 | 17 | 223 | 11.3 | 16.1 | 0.00 | 0.00 | 0.00 | 42 | 1011.0 |
| 20260502185614 | 16 | 205 | 11.3 | 30.6 | 0.00 | 0.00 | 0.00 | 42 | 1011.2 |
| 20260502185112 | 16 | 217 | 9.7 | 27.4 | 0.00 | 0.00 | 0.00 | 41 | 1011.3 |
| 20260502184608 | 16 | 226 | 16.1 | 27.4 | 0.00 | 0.00 | 0.00 | 41 | 1011.4 |
| 20260502184103 | 16 | 219 | 6.4 | 16.1 | 0.00 | 0.00 | 0.00 | 45 | 1011.3 |
| 20260502183600 | 16 | 219 | 9.7 | 22.5 | 0.00 | 0.00 | 0.00 | 44 | 1011.6 |
| 20260502183056 | 16 | 225 | 14.5 | 17.7 | 0.00 | 0.00 | 0.00 | 41 | 1011.7 |
| 20260502182551 | 15 | 226 | 14.5 | 20.9 | 0.00 | 0.00 | 0.00 | 42 | 1011.9 |
| 20260502182047 | 15 | 224 | 14.5 | 29.0 | 0.00 | 0.00 | 0.00 | 42 | 1011.8 |
| 20260502181545 | 15 | 219 | 16.1 | 37.0 | 0.00 | 0.00 | 0.00 | 43 | 1012.0 |
| 20260502181044 | 16 | 216 | 19.3 | 25.7 | 0.00 | 0.00 | 0.00 | 42 | 1011.9 |
| 20260502180541 | 16 | 212 | 9.7 | 22.5 | 0.00 | 0.00 | 0.00 | 43 | 1012.0 |
| 20260502170500 | 13 | 220 | 11.3 | 17.7 | 0.00 | 0.00 | 0.00 | 46 | 1013.4 |
| 20260502163937 | 13 | 224 | 6.4 | 19.3 | 0.00 | 0.00 | 0.00 | 49 | 1013.7 |
| 20260502163433 | 12 | 231 | 8.0 | 22.5 | 0.00 | 0.00 | 0.00 | 46 | 1013.7 |
| 20260502162931 | 13 | 237 | 14.5 | 22.5 | 0.00 | 0.00 | 0.00 | 51 | 1013.8 |
| 20260502162429 | 13 | 218 | 8.0 | 12.9 | 0.00 | 0.00 | 0.00 | 45 | 1013.9 |
| 20260502161926 | 12 | 202 | 9.7 | 19.3 | 0.00 | 0.00 | 0.00 | 45 | 1013.9 |
| 20260502161421 | 12 | 216 | 14.5 | 17.7 | 0.00 | 0.00 | 0.00 | 46 | 1014.0 |
| 20260502160919 | 12 | 220 | 11.3 | 17.7 | 0.00 | 0.00 | 0.00 | 50 | 1014.2 |
| 20260502160417 | 12 | 227 | 14.5 | 19.3 | 0.00 | 0.00 | 0.00 | 49 | 1014.0 |
| 20260502151855 | 11 | 231 | 14.5 | 20.9 | 0.00 | 0.00 | 0.00 | 47 | 1014.8 |
| 20260502151351 | 11 | 205 | 3.2 | 11.3 | 0.00 | 0.00 | 0.00 | 50 | 1015.0 |
| 20260502150849 | 11 | 263 | 19.3 | 29.0 | 0.00 | 0.00 | 0.00 | 46 | 1015.0 |
| 20260502150345 | 11 | 212 | 9.7 | 14.5 | 0.00 | 0.00 | 0.00 | 49 | 1015.1 |
| 20260502130733 | 5 | 223 | 3.2 | 4.8 | 0.00 | 0.00 | 0.00 | 66 | 1016.3 |
| 20260502130231 | 5 | 186 | 1.6 | 3.2 | 0.00 | 0.00 | 0.00 | 70 | 1016.5 |
| 20260502123717 | 3 | 120 | 4.8 | 4.8 | 0.00 | 0.00 | 0.00 | 70 | 1016.5 |
| 20260502123213 | 3 | 167 | 3.2 | 4.8 | 0.00 | 0.00 | 0.00 | 70 | 1016.5 |
| 20260502122710 | 2 | 121 | 3.2 | 4.8 | 0.00 | 0.00 | 0.00 | 73 | 1016.4 |
| 20260502122206 | 2 | 128 | 3.2 | 4.8 | 0.00 | 0.00 | 0.00 | 78 | 1016.6 |
| 20260502121705 | 1 | 111 | 1.6 | 3.2 | 0.00 | 0.00 | 0.00 | 81 | 1016.6 |
| 20260502121203 | 1 | 84 | 3.2 | 4.8 | 0.00 | 0.00 | 0.00 | 84 | 1016.5 |
| 20260502120659 | 0 | 82 | 4.8 | 4.8 | 0.00 | 0.00 | 0.00 | 85 | 1016.5 |
| 20260502120155 | 0 | 78 | 3.2 | 4.8 | 0.00 | 0.00 | 0.00 | 85 | 1016.5 |
| 20260502115653 | 0 | 94 | 4.8 | 6.4 | 0.00 | 0.00 | 0.00 | 85 | 1016.6 |
| 20260502115149 | 0 | 99 | 3.2 | 4.8 | 0.00 | 0.00 | 0.00 | 85 | 1016.5 |
| 20260502114645 | 0 | 100 | 4.8 | 6.4 | 0.00 | 0.00 | 0.00 | 85 | 1016.5 |
| 20260502114143 | 0 | 92 | 4.8 | 6.4 | 0.00 | 0.00 | 0.00 | 85 | 1016.4 |
| 20260502113640 | 0 | 95 | 4.8 | 6.4 | 0.00 | 0.00 | 0.00 | 86 | 1016.5 |
| 20260502113138 | 0 | 86 | 3.2 | 4.8 | 0.00 | 0.00 | 0.00 | 86 | 1016.6 |
| 20260502112636 | 0 | 92 | 4.8 | 6.4 | 0.00 | 0.00 | 0.00 | 84 | 1016.5 |
| 20260502112133 | 0 | 110 | 4.8 | 6.4 | 0.00 | 0.00 | 0.00 | 84 | 1016.6 |
| 20260502111631 | 0 | 112 | 4.8 | 4.8 | 0.00 | 0.00 | 0.00 | 84 | 1016.6 |
| 20260502111128 | 0 | 84 | 3.2 | 4.8 | 0.00 | 0.00 | 0.00 | 85 | 1016.5 |
| 20260502110626 | 0 | 133 | 4.8 | 6.4 | 0.00 | 0.00 | 0.00 | 86 | 1016.5 |
| 20260502110123 | 0 | 119 | 4.8 | 6.4 | 0.00 | 0.00 | 0.00 | 86 | 1016.4 |
| 20260502105620 | 0 | 116 | 6.4 | 6.4 | 0.00 | 0.00 | 0.00 | 86 | 1016.4 |
| 20260502105117 | 0 | 115 | 4.8 | 6.4 | 0.00 | 0.00 | 0.00 | 86 | 1016.4 |
| 20260502104614 | 0 | 103 | 6.4 | 8.0 | 0.00 | 0.00 | 0.00 | 85 | 1016.4 |
| 20260502104112 | 0 | 110 | 4.8 | 6.4 | 0.00 | 0.00 | 0.00 | 85 | 1016.5 |
| 20260502103609 | 0 | 106 | 6.4 | 6.4 | 0.00 | 0.00 | 0.00 | 85 | 1016.5 |
| 20260502103108 | 0 | 120 | 3.2 | 6.4 | 0.00 | 0.00 | 0.00 | 86 | 1016.5 |
| 20260502102603 | 0 | 104 | 6.4 | 6.4 | 0.00 | 0.00 | 0.00 | 87 | 1016.6 |
| 20260502102100 | 0 | 106 | 4.8 | 8.0 | 0.00 | 0.00 | 0.00 | 87 | 1016.7 |
| 20260502101558 | 0 | 108 | 6.4 | 6.4 | 0.00 | 0.00 | 0.00 | 87 | 1016.7 |
| 20260502101057 | 0 | 106 | 4.8 | 4.8 | 0.00 | 0.00 | 0.00 | 88 | 1016.8 |
| 20260502100554 | 0 | 100 | 4.8 | 4.8 | 0.00 | 0.00 | 0.00 | 88 | 1016.6 |
| 20260502091529 | 0 | 109 | 4.8 | 6.4 | 0.00 | 0.00 | 0.00 | 90 | 1016.7 |
| 20260502091026 | 0 | 113 | 4.8 | 6.4 | 0.00 | 0.00 | 0.00 | 89 | 1016.6 |
| 20260502090523 | 0 | 110 | 4.8 | 6.4 | 0.00 | 0.00 | 0.00 | 89 | 1016.5 |
| 20260502071418 | 1 | 111 | 4.8 | 4.8 | 0.00 | 0.00 | 0.00 | 84 | 1016.8 |
| 20260502070916 | 1 | 112 | 4.8 | 4.8 | 0.00 | 0.00 | 0.00 | 84 | 1017.0 |
| 20260502070414 | 1 | 109 | 4.8 | 4.8 | 0.00 | 0.00 | 0.00 | 83 | 1017.0 |
| 20260502065912 | 1 | 101 | 3.2 | 4.8 | 0.00 | 0.00 | 0.00 | 83 | 1017.0 |
| 20260502065410 | 1 | 100 | 4.8 | 4.8 | 0.00 | 0.00 | 0.00 | 82 | 1017.2 |
| 20260502064908 | 2 | 104 | 4.8 | 4.8 | 0.00 | 0.00 | 0.00 | 82 | 1017.0 |
| 20260502064405 | 2 | 98 | 4.8 | 4.8 | 0.00 | 0.00 | 0.00 | 81 | 1017.2 |
| 20260502063902 | 2 | 100 | 4.8 | 4.8 | 0.00 | 0.00 | 0.00 | 80 | 1017.4 |
| 20260502063400 | 2 | 106 | 3.2 | 4.8 | 0.00 | 0.00 | 0.00 | 80 | 1017.3 |
| 20260502062857 | 2 | 106 | 4.8 | 6.4 | 0.00 | 0.00 | 0.00 | 79 | 1017.1 |
| 20260502062354 | 2 | 101 | 4.8 | 6.4 | 0.00 | 0.00 | 0.00 | 79 | 1017.2 |
| 20260502061853 | 2 | 104 | 4.8 | 6.4 | 0.00 | 0.00 | 0.00 | 79 | 1017.2 |
| 20260502061351 | 2 | 98 | 3.2 | 4.8 | 0.00 | 0.00 | 0.00 | 80 | 1017.3 |
| 20260502060846 | 2 | 106 | 3.2 | 4.8 | 0.00 | 0.00 | 0.00 | 80 | 1017.2 |
| 20260502060342 | 2 | 103 | 3.2 | 4.8 | 0.00 | 0.00 | 0.00 | 80 | 1017.3 |
| 20260502055839 | 2 | 92 | 3.2 | 3.2 | 0.00 | 0.00 | 0.00 | 80 | 1017.1 |
| 20260502055337 | 2 | 100 | 3.2 | 3.2 | 0.00 | 0.00 | 0.00 | 81 | 1017.1 |
| 20260502054837 | 3 | 70 | 3.2 | 3.2 | 0.00 | 0.00 | 0.00 | 79 | 1017.2 |
| 20260502054334 | 2 | 75 | 3.2 | 3.2 | 0.00 | 0.00 | 0.00 | 79 | 1017.0 |
| 20260502053831 | 2 | 78 | 0.0 | 3.2 | 0.00 | 0.00 | 0.00 | 77 | 1017.2 |
| 20260502053328 | 2 | 107 | 3.2 | 4.8 | 0.00 | 0.00 | 0.00 | 73 | 1017.1 |
| 20260502052826 | 2 | 110 | 4.8 | 4.8 | 0.00 | 0.00 | 0.00 | 73 | 1017.0 |
| 20260502052324 | 3 | 109 | 4.8 | 4.8 | 0.00 | 0.00 | 0.00 | 73 | 1017.3 |
| 20260502051821 | 3 | 96 | 3.2 | 4.8 | 0.00 | 0.00 | 0.00 | 72 | 1017.1 |
| 20260502051320 | 3 | 108 | 3.2 | 4.8 | 0.00 | 0.00 | 0.00 | 71 | 1017.3 |
| 20260502050816 | 3 | 106 | 3.2 | 4.8 | 0.00 | 0.00 | 0.00 | 71 | 1017.2 |
| 20260502050312 | 3 | 108 | 3.2 | 4.8 | 0.00 | 0.00 | 0.00 | 71 | 1017.2 |
| 20260502045809 | 3 | 110 | 4.8 | 4.8 | 0.00 | 0.00 | 0.00 | 70 | 1017.2 |
| 20260502045306 | 3 | 114 | 4.8 | 4.8 | 0.00 | 0.00 | 0.00 | 68 | 1017.3 |
| 20260502044803 | 3 | 109 | 4.8 | 4.8 | 0.00 | 0.00 | 0.00 | 69 | 1017.4 |
| 20260502044259 | 3 | 113 | 4.8 | 4.8 | 0.00 | 0.00 | 0.00 | 68 | 1017.2 |
| 20260502043757 | 3 | 95 | 4.8 | 4.8 | 0.00 | 0.00 | 0.00 | 68 | 1017.3 |
| 20260502043254 | 4 | 100 | 3.2 | 3.2 | 0.00 | 0.00 | 0.00 | 68 | 1017.4 |
| 20260502042753 | 4 | 92 | 3.2 | 4.8 | 0.00 | 0.00 | 0.00 | 66 | 1017.4 |
| 20260502042251 | 4 | 134 | 0.0 | 3.2 | 0.00 | 0.00 | 0.00 | 65 | 1017.2 |
| 20260502041748 | 5 | 99 | 4.8 | 4.8 | 0.00 | 0.00 | 0.00 | 64 | 1017.2 |
| 20260502041245 | 5 | 150 | 0.0 | 1.6 | 0.00 | 0.00 | 0.00 | 62 | 1017.3 |
| 20260502040742 | 5 | 238 | 0.0 | 3.2 | 0.00 | 0.00 | 0.00 | 61 | 1017.3 |
| 20260502040239 | 5 | 271 | 4.8 | 6.4 | 0.00 | 0.00 | 0.00 | 62 | 1017.5 |
| 20260502035735 | 5 | 291 | 1.6 | 3.2 | 0.00 | 0.00 | 0.00 | 76 | 1017.3 |
| 20260502035232 | 5 | 103 | 0.0 | 3.2 | 0.00 | 0.00 | 0.00 | 65 | 1017.3 |
| 20260502034729 | 5 | 97 | 4.8 | 6.4 | 0.00 | 0.00 | 0.00 | 59 | 1017.3 |
| 20260502034228 | 5 | 107 | 4.8 | 4.8 | 0.00 | 0.00 | 0.00 | 58 | 1017.2 |
| 20260502033725 | 5 | 101 | 4.8 | 4.8 | 0.00 | 0.00 | 0.00 | 58 | 1017.5 |
| 20260502033223 | 5 | 91 | 4.8 | 4.8 | 0.00 | 0.00 | 0.00 | 57 | 1017.3 |
| 20260502032720 | 5 | 101 | 4.8 | 4.8 | 0.00 | 0.00 | 0.00 | 57 | 1017.3 |
| 20260502032215 | 6 | 101 | 3.2 | 4.8 | 0.00 | 0.00 | 0.00 | 58 | 1017.3 |
| 20260502031714 | 6 | 76 | 3.2 | 3.2 | 0.00 | 0.00 | 0.00 | 60 | 1017.2 |
| 20260502031211 | 6 | 83 | 1.6 | 3.2 | 0.00 | 0.00 | 0.00 | 57 | 1017.4 |
| 20260502030710 | 6 | 57 | 1.6 | 3.2 | 0.00 | 0.00 | 0.00 | 53 | 1017.1 |
| 20260502030208 | 6 | 68 | 3.2 | 3.2 | 0.00 | 0.00 | 0.00 | 49 | 1017.3 |
| 20260502025704 | 6 | 100 | 3.2 | 4.8 | 0.00 | 0.00 | 0.00 | 50 | 1016.9 |
| 20260502025202 | 6 | 101 | 3.2 | 4.8 | 0.00 | 0.00 | 0.00 | 47 | 1017.1 |
| 20260502024700 | 7 | 110 | 3.2 | 4.8 | 0.00 | 0.00 | 0.00 | 48 | 1017.1 |
| 20260502024158 | 7 | 103 | 4.8 | 4.8 | 0.00 | 0.00 | 0.00 | 48 | 1017.1 |
| 20260502023655 | 7 | 98 | 4.8 | 4.8 | 0.00 | 0.00 | 0.00 | 47 | 1017.1 |
| 20260502023152 | 7 | 95 | 3.2 | 4.8 | 0.00 | 0.00 | 0.00 | 47 | 1017.1 |
| 20260502022649 | 7 | 106 | 3.2 | 4.8 | 0.00 | 0.00 | 0.00 | 46 | 1017.0 |
| 20260502022146 | 8 | 109 | 4.8 | 4.8 | 0.00 | 0.00 | 0.00 | 46 | 1016.9 |
| 20260502021644 | 8 | 102 | 3.2 | 4.8 | 0.00 | 0.00 | 0.00 | 45 | 1016.8 |
| 20260502021141 | 8 | 99 | 4.8 | 4.8 | 0.00 | 0.00 | 0.00 | 45 | 1017.0 |
| 20260502020638 | 8 | 99 | 3.2 | 3.2 | 0.00 | 0.00 | 0.00 | 43 | 1016.8 |
| 20260502020134 | 8 | 87 | 1.6 | 3.2 | 0.00 | 0.00 | 0.00 | 43 | 1016.8 |
| 20260502015633 | 9 | 70 | 1.6 | 3.2 | 0.00 | 0.00 | 0.00 | 41 | 1016.6 |
| 20260502015129 | 9 | 59 | 3.2 | 3.2 | 0.00 | 0.00 | 0.00 | 40 | 1016.7 |
| 20260502014626 | 10 | 92 | 3.2 | 3.2 | 0.00 | 0.00 | 0.00 | 41 | 1016.7 |
| 20260502014123 | 10 | 98 | 3.2 | 3.2 | 0.00 | 0.00 | 0.00 | 39 | 1016.7 |
| 20260502013619 | 10 | 89 | 3.2 | 3.2 | 0.00 | 0.00 | 0.00 | 39 | 1016.7 |
| 20260502013115 | 10 | 72 | 3.2 | 3.2 | 0.00 | 0.00 | 0.00 | 37 | 1016.5 |
| 20260502012613 | 10 | 53 | 3.2 | 4.8 | 0.00 | 0.00 | 0.00 | 38 | 1016.6 |
| 20260502012111 | 10 | 60 | 3.2 | 3.2 | 0.00 | 0.00 | 0.00 | 37 | 1016.7 |
| 20260502011607 | 11 | 60 | 1.6 | 3.2 | 0.00 | 0.00 | 0.00 | 36 | 1016.6 |
| 20260502011103 | 11 | 64 | 3.2 | 3.2 | 0.00 | 0.00 | 0.00 | 35 | 1016.5 |
| 20260502010600 | 11 | 46 | 3.2 | 4.8 | 0.00 | 0.00 | 0.00 | 35 | 1016.5 |
| 20260502010056 | 11 | 50 | 4.8 | 4.8 | 0.00 | 0.00 | 0.00 | 35 | 1016.3 |
| 20260502005554 | 11 | 56 | 3.2 | 6.4 | 0.00 | 0.00 | 0.00 | 35 | 1016.6 |
| 20260502005052 | 11 | 63 | 3.2 | 6.4 | 0.00 | 0.00 | 0.00 | 36 | 1016.4 |
| 20260502004547 | 12 | 47 | 4.8 | 8.0 | 0.00 | 0.00 | 0.00 | 34 | 1016.3 |
| 20260502004044 | 12 | 26 | 1.6 | 6.4 | 0.00 | 0.00 | 0.00 | 34 | 1016.3 |
| 20260502003543 | 12 | 0 | 6.4 | 8.0 | 0.00 | 0.00 | 0.00 | 34 | 1016.4 |
| 20260502003039 | 12 | 35 | 4.8 | 8.0 | 0.00 | 0.00 | 0.00 | 33 | 1016.4 |
| 20260502002536 | 12 | 59 | 6.4 | 8.0 | 0.00 | 0.00 | 0.00 | 33 | 1016.3 |
| 20260502002033 | 12 | 77 | 3.2 | 8.0 | 0.00 | 0.00 | 0.00 | 33 | 1016.4 |
| 20260502001531 | 12 | 7 | 6.4 | 8.0 | 0.00 | 0.00 | 0.00 | 37 | 1016.2 |
| 20260502001027 | 12 | 73 | 4.8 | 9.7 | 0.00 | 0.00 | 0.00 | 33 | 1016.4 |
| 20260502000526 | 12 | 45 | 3.2 | 6.4 | 0.00 | 0.00 | 0.00 | 34 | 1016.2 |
| 20260502000022 | 12 | 2 | 3.2 | 6.4 | 0.00 | 0.00 | 0.00 | 34 | 1016.2 |
| 20260501235518 | 12 | 66 | 9.7 | 9.7 | 0.00 | 0.00 | 0.00 | 34 | 1016.2 |
| 20260501235014 | 13 | 15 | 3.2 | 4.8 | 0.00 | 0.00 | 0.00 | 34 | 1016.2 |
| 20260501234510 | 12 | 56 | 4.8 | 8.0 | 0.00 | 0.00 | 0.00 | 33 | 1016.3 |
| 20260501234009 | 12 | 9 | 6.4 | 9.7 | 0.00 | 0.00 | 0.00 | 38 | 1016.3 |
| 20260501233506 | 12 | 29 | 6.4 | 11.3 | 0.00 | 0.00 | 0.00 | 39 | 1016.4 |
| 20260501233002 | 12 | 2 | 4.8 | 9.7 | 0.00 | 0.00 | 0.00 | 36 | 1016.4 |
| 20260501232459 | 13 | 354 | 8.0 | 8.0 | 0.00 | 0.00 | 0.00 | 34 | 1016.3 |
| 20260501231956 | 12 | 356 | 4.8 | 9.7 | 0.00 | 0.00 | 0.00 | 36 | 1016.3 |
| 20260501231454 | 12 | 356 | 8.0 | 16.1 | 0.00 | 0.00 | 0.00 | 36 | 1016.3 |
| 20260501230952 | 11 | 25 | 6.4 | 9.7 | 0.00 | 0.00 | 0.00 | 37 | 1016.5 |
| 20260501230451 | 11 | 348 | 8.0 | 12.9 | 0.00 | 0.00 | 0.00 | 36 | 1016.5 |
| 20260501225948 | 11 | 350 | 4.8 | 8.0 | 0.00 | 0.00 | 0.00 | 35 | 1016.5 |
| 20260501225446 | 11 | 4 | 6.4 | 8.0 | 0.00 | 0.00 | 0.00 | 37 | 1016.4 |
| 20260501224941 | 10 | 332 | 9.7 | 11.3 | 0.00 | 0.00 | 0.00 | 40 | 1016.7 |
| 20260501224439 | 11 | 349 | 6.4 | 8.0 | 0.00 | 0.00 | 0.00 | 38 | 1016.5 |
| 20260501223936 | 11 | 0 | 6.4 | 6.4 | 0.00 | 0.00 | 0.00 | 40 | 1016.5 |
| 20260501223432 | 11 | 0 | 4.8 | 6.4 | 0.00 | 0.00 | 0.00 | 39 | 1016.7 |
| 20260501222927 | 11 | 26 | 4.8 | 6.4 | 0.00 | 0.00 | 0.00 | 40 | 1016.6 |
| 20260501222425 | 10 | 357 | 8.0 | 11.3 | 0.00 | 0.00 | 0.00 | 43 | 1016.5 |
| 20260501221921 | 10 | 351 | 12.9 | 14.5 | 0.00 | 0.00 | 0.00 | 41 | 1016.6 |
| 20260501221419 | 10 | 1 | 11.3 | 12.9 | 0.00 | 0.00 | 0.00 | 41 | 1016.4 |
| 20260501220916 | 10 | 351 | 4.8 | 11.3 | 0.00 | 0.00 | 0.00 | 41 | 1016.5 |
| 20260501220414 | 11 | 347 | 11.3 | 14.5 | 0.00 | 0.00 | 0.00 | 44 | 1016.5 |
| 20260501215910 | 11 | 306 | 8.0 | 11.3 | 0.00 | 0.00 | 0.00 | 39 | 1016.7 |
| 20260501215407 | 11 | 351 | 6.4 | 9.7 | 0.00 | 0.00 | 0.00 | 37 | 1016.6 |
| 20260501214903 | 11 | 298 | 12.9 | 19.3 | 0.00 | 0.00 | 0.00 | 38 | 1016.7 |
| 20260501214402 | 11 | 339 | 14.5 | 20.9 | 0.00 | 0.00 | 0.00 | 40 | 1016.7 |
| 20260501213858 | 11 | 299 | 12.9 | 22.5 | 0.00 | 0.00 | 0.00 | 39 | 1016.6 |
| 20260501213355 | 11 | 332 | 9.7 | 16.1 | 0.00 | 0.00 | 0.00 | 37 | 1016.6 |
| 20260501212851 | 11 | 338 | 14.5 | 19.3 | 0.00 | 0.00 | 0.00 | 44 | 1016.8 |
| 20260501212348 | 11 | 329 | 14.5 | 22.5 | 0.00 | 0.00 | 0.00 | 39 | 1016.7 |
| 20260501211845 | 10 | 256 | 20.9 | 20.9 | 0.00 | 0.00 | 0.00 | 38 | 1016.6 |
| 20260501211342 | 12 | 274 | 14.5 | 14.5 | 0.00 | 0.00 | 0.00 | 41 | 1016.8 |
| 20260501210839 | 12 | 259 | 3.2 | 4.8 | 0.00 | 0.00 | 0.00 | 35 | 1016.7 |
| 20260501210337 | 12 | 264 | 6.4 | 6.4 | 0.00 | 0.00 | 0.00 | 35 | 1016.8 |
| 20260501205833 | 11 | 242 | 4.8 | 4.8 | 0.00 | 0.00 | 0.00 | 36 | 1016.9 |
| 20260501205330 | 11 | 303 | 8.0 | 16.1 | 0.00 | 0.00 | 0.00 | 36 | 1016.8 |
| 20260501204826 | 10 | 9 | 9.7 | 9.7 | 0.00 | 0.00 | 0.00 | 45 | 1016.8 |
| 20260501204323 | 10 | 332 | 8.0 | 19.3 | 0.00 | 0.00 | 0.00 | 37 | 1017.1 |
| 20260501203819 | 11 | 288 | 9.7 | 14.5 | 0.00 | 0.00 | 0.00 | 38 | 1017.1 |
| 20260501203317 | 11 | 248 | 11.3 | 12.9 | 0.00 | 0.00 | 0.00 | 39 | 1017.1 |
| 20260501202814 | 10 | 225 | 17.7 | 24.1 | 0.00 | 0.00 | 0.00 | 45 | 1016.9 |
| 20260501202311 | 10 | 195 | 6.4 | 12.9 | 0.00 | 0.00 | 0.00 | 37 | 1017.1 |
| 20260501201808 | 11 | 293 | 6.4 | 6.4 | 0.00 | 0.00 | 0.00 | 36 | 1017.2 |
| 20260501201304 | 11 | 242 | 4.8 | 8.0 | 0.00 | 0.00 | 0.00 | 39 | 1017.2 |
| 20260501200801 | 10 | 255 | 14.5 | 19.3 | 0.00 | 0.00 | 0.00 | 44 | 1017.2 |
| 20260501200258 | 10 | 345 | 6.4 | 6.4 | 0.00 | 0.00 | 0.00 | 44 | 1017.1 |
| 20260501195755 | 10 | 340 | 11.3 | 14.5 | 0.00 | 0.00 | 0.00 | 41 | 1017.2 |
| 20260501195251 | 10 | 259 | 6.4 | 12.9 | 0.00 | 0.00 | 0.00 | 44 | 1017.2 |
| 20260501194748 | 11 | 272 | 1.6 | 4.8 | 0.00 | 0.00 | 0.00 | 36 | 1017.2 |
| 20260501194243 | 10 | 126 | 0.0 | 11.3 | 0.00 | 0.00 | 0.00 | 36 | 1017.1 |